Rush City, MN

8:09 PM CST on December 17, 2017 (GMT -0600)
Rush City Regional

Weather History for KROS - March, 2013

Change the Weather History Date:

Friday, March 22, 2013

  Actual Average (KCBG) Record (KCBG)
Temperature  
Mean Temperature 17 °F -  
Max Temperature 34 °F 39 °F 62 °F (2012)
Min Temperature 0 °F 20 °F -5 °F (1974)
Degree Days  
Heating Degree Days 48    
Moisture  
Dew Point 8 °F    
Average Humidity 65    
Maximum Humidity 88    
Minimum Humidity 40    
Precipitation  
Precipitation 0.00 in - - ()
Sea Level Pressure  
Sea Level Pressure 30.05 in    
Wind  
Wind Speed 2 mph (WNW)    
Max Wind Speed 6 mph    
Max Gust Speed -    
Visibility 10 miles    
Events      
Averages and records for this station are not official NWS values.
T = Trace of Precipitation, MM = Missing Value Source: NWS Daily Summary

Daily Weather History Graph

Daily Weather History Graph

Search for Another Location

Airport or City:

Trip Planner

Search our weather history database for the weather conditions in past years. The results will help you decide how hot, cold, wet, or windy it might be!

Date:

Astronomy

Mar. 22, 2013 Rise Set
Actual Time 7:10 AM CDT 7:27 PM CDT
Civil Twilight 6:40 AM CDT 7:57 PM CDT
Nautical Twilight 6:05 AM CDT 8:32 PM CDT
Astronomical Twilight 5:29 AM CDT 9:08 PM CDT
Moon 2:43 PM CDT (3/22) 4:24 AM CDT (3/22)
Length of Visible Light 13h 16m
Length of Day
12h 16m
Waxing Gibbous, 77% of the Moon is Illuminated
Mar 22
Waxing Gibbous
Mar 27
Full
Apr 2
Last Quarter
Apr 10
New
Apr 18
First Quarter

Hourly Weather History & Observations

Time (CDT) Temp. Windchill Dew Point Humidity Pressure Visibility Wind Dir Wind Speed Gust Speed Precip Events Conditions
12:15 AM 11.5 °F 3.5 °F 5.5 °F 77% 30.06 in 10.0 mi West 4.6 mph - N/A   Clear
12:35 AM 11.3 °F 1.9 °F 5.0 °F 76% 30.06 in 10.0 mi West 5.8 mph - N/A   Clear
12:55 AM 9.9 °F 1.6 °F 3.7 °F 76% 30.06 in 10.0 mi West 4.6 mph - N/A   Clear
1:15 AM 9.7 °F 1.4 °F 4.1 °F 78% 30.07 in 10.0 mi West 4.6 mph - N/A   Clear
1:35 AM 9.3 °F 1.0 °F 3.7 °F 78% 30.07 in 10.0 mi West 4.6 mph - N/A   Clear
1:55 AM 9.1 °F 2.6 °F 3.9 °F 79% 30.07 in 10.0 mi West 3.5 mph - N/A   Clear
2:15 AM 8.6 °F - 3.7 °F 81% 30.07 in 10.0 mi Calm Calm - N/A   Clear
2:36 AM 7.7 °F -0.9 °F 3.0 °F 81% 30.06 in 10.0 mi West 4.6 mph - N/A   Clear
2:55 AM 7.9 °F - 3.6 °F 83% 30.06 in 10.0 mi Calm Calm - N/A   Clear
3:15 AM 7.7 °F - 3.2 °F 82% 30.06 in 10.0 mi Calm Calm - N/A   Clear
3:36 AM 7.0 °F - 2.3 °F 81% 30.06 in 10.0 mi Calm Calm - N/A   Clear
3:55 AM 6.4 °F - 2.7 °F 84% 30.06 in 10.0 mi Calm Calm - N/A   Clear
4:15 AM 5.5 °F - 2.3 °F 86% 30.06 in 10.0 mi Calm Calm - N/A   Scattered Clouds
4:36 AM 4.1 °F - 0.7 °F 86% 30.06 in 10.0 mi Calm Calm - N/A   Clear
4:55 AM 2.5 °F - -0.8 °F 86% 30.06 in 10.0 mi Calm Calm - N/A   Clear
5:15 AM 3.4 °F - 0.1 °F 86% 30.06 in 10.0 mi Calm Calm - N/A   Clear
5:36 AM 3.0 °F - -0.6 °F 85% 30.06 in 10.0 mi Calm Calm - N/A   Scattered Clouds
5:55 AM 1.8 °F - -1.7 °F 86% 30.06 in 10.0 mi Calm Calm - N/A   Scattered Clouds
6:15 AM 0.5 °F - -2.6 °F 87% 30.06 in 10.0 mi Calm Calm - N/A   Scattered Clouds
6:36 AM 1.4 °F - -1.8 °F 86% 30.06 in 10.0 mi Calm Calm - N/A   Scattered Clouds
6:55 AM 0.1 °F - -3.5 °F 85% 30.06 in 10.0 mi Calm Calm - N/A   Scattered Clouds
7:15 AM 0.5 °F - -3.1 °F 85% 30.06 in 10.0 mi Calm Calm - N/A   Mostly Cloudy
7:35 AM 0.7 °F - -2.9 °F 85% 30.06 in 10.0 mi Calm Calm - N/A   Scattered Clouds
7:55 AM 0.1 °F - -3.1 °F 86% 30.07 in 10.0 mi Calm Calm - N/A   Scattered Clouds
8:15 AM 2.1 °F - -1.1 °F 86% 30.07 in 10.0 mi Calm Calm - N/A   Clear
8:35 AM 5.0 °F - 1.9 °F 87% 30.07 in 10.0 mi Calm Calm - N/A   Scattered Clouds
8:55 AM 7.0 °F - 4.1 °F 88% 30.06 in 10.0 mi Calm Calm - N/A   Clear
9:15 AM 11.7 °F 5.5 °F 7.5 °F 83% 30.06 in 10.0 mi North 3.5 mph - N/A   Clear
9:35 AM 14.9 °F - 7.5 °F 73% 30.06 in 10.0 mi Calm Calm - N/A   Clear
9:55 AM 17.1 °F 8.7 °F 8.1 °F 68% 30.06 in 10.0 mi North 5.8 mph - N/A   Clear
10:15 AM 18.3 °F 11.5 °F 8.4 °F 65% 30.06 in 10.0 mi North 4.6 mph - N/A   Clear
10:35 AM 19.4 °F 14.3 °F 8.6 °F 63% 30.06 in 10.0 mi North 3.5 mph - N/A   Clear
10:55 AM 21.2 °F - 9.0 °F 59% 30.06 in 10.0 mi Calm Calm - N/A   Clear
11:15 AM 23.9 °F - 10.4 °F 56% 30.06 in 10.0 mi Calm Calm - N/A   Clear
11:35 AM 25.0 °F - 10.8 °F 55% 30.06 in 10.0 mi Calm Calm - N/A   Clear
11:55 AM 27.0 °F - 11.3 °F 52% 30.06 in 10.0 mi Calm Calm - N/A   Clear
12:15 PM 28.4 °F - 12.0 °F 50% 30.06 in 10.0 mi Calm Calm - N/A   Clear
12:35 PM 29.8 °F 26.3 °F 12.6 °F 49% 30.05 in 10.0 mi West 3.5 mph - N/A   Clear
12:55 PM 30.4 °F 24.5 °F 12.6 °F 48% 30.05 in 10.0 mi WNW 5.8 mph - N/A   Clear
1:15 PM 30.9 °F 26.2 °F 12.2 °F 46% 30.04 in 10.0 mi NW 4.6 mph - N/A   Clear
1:35 PM 32.0 °F 26.4 °F 12.7 °F 45% 30.04 in 10.0 mi NW 5.8 mph - N/A   Clear
1:55 PM 32.2 °F 26.7 °F 12.7 °F 45% 30.04 in 10.0 mi WNW 5.8 mph - N/A   Clear
2:15 PM 32.5 °F - 12.4 °F 43% 30.03 in 10.0 mi Calm Calm - N/A   Clear
2:36 PM 33.4 °F 30.4 °F 12.4 °F 42% 30.03 in 10.0 mi WNW 3.5 mph - N/A   Clear
2:55 PM 34.0 °F 29.8 °F 12.2 °F 41% 30.02 in 10.0 mi West 4.6 mph - N/A   Clear
3:15 PM 34.3 °F 30.2 °F 12.4 °F 40% 30.02 in 10.0 mi West 4.6 mph - N/A   Clear
3:36 PM 34.7 °F 31.8 °F 12.6 °F 40% 30.03 in 10.0 mi West 3.5 mph - N/A   Clear
3:55 PM 33.6 °F 29.4 °F 12.0 °F 41% 30.03 in 10.0 mi West 4.6 mph - N/A   Clear
4:15 PM 34.3 °F 30.2 °F 12.4 °F 40% 30.03 in 10.0 mi West 4.6 mph - N/A   Clear
4:36 PM 34.0 °F - 12.4 °F 41% 30.03 in 10.0 mi Calm Calm - N/A   Clear
4:55 PM 34.3 °F 30.2 °F 13.3 °F 42% 30.03 in 10.0 mi West 4.6 mph - N/A   Clear
5:15 PM 34.5 °F - 14.0 °F 43% 30.03 in 10.0 mi Calm Calm - N/A   Clear
5:36 PM 33.8 °F 29.6 °F 13.8 °F 44% 30.03 in 10.0 mi West 4.6 mph - N/A   Clear
5:55 PM 33.4 °F - 13.3 °F 43% 30.03 in 10.0 mi Calm Calm - N/A   Clear
6:15 PM 32.9 °F - 13.5 °F 45% 30.04 in 10.0 mi Calm Calm - N/A   Clear
6:36 PM 32.0 °F - 13.1 °F 46% 30.04 in 10.0 mi Calm Calm - N/A   Clear
6:55 PM 31.1 °F - 12.2 °F 46% 30.05 in 10.0 mi Calm Calm - N/A   Clear
7:15 PM 28.8 °F - 12.7 °F 51% 30.05 in 10.0 mi Calm Calm - N/A   Clear
7:35 PM 27.3 °F - 13.1 °F 55% 30.05 in 10.0 mi Calm Calm - N/A   Clear
7:55 PM 25.9 °F - 13.1 °F 58% 30.05 in 10.0 mi Calm Calm - N/A   Scattered Clouds
8:15 PM 23.7 °F - 12.6 °F 62% 30.05 in 10.0 mi Calm Calm - N/A   Clear
8:35 PM 23.2 °F - 13.1 °F 65% 30.05 in 10.0 mi Calm Calm - N/A   Clear
8:55 PM 23.0 °F 18.4 °F 12.2 °F 63% 30.06 in 10.0 mi WNW 3.5 mph - N/A   Clear
9:15 PM 21.7 °F 15.5 °F 12.0 °F 66% 30.06 in 10.0 mi West 4.6 mph - N/A   Clear
9:35 PM 21.9 °F 17.2 °F 11.7 °F 65% 30.06 in 10.0 mi WNW 3.5 mph - N/A   Clear
9:55 PM 21.9 °F 17.2 °F 12.0 °F 66% 30.06 in 10.0 mi West 3.5 mph - N/A   Clear
10:15 PM 21.9 °F 17.2 °F 12.2 °F 66% 30.07 in 10.0 mi WNW 3.5 mph - N/A   Clear
10:35 PM 20.1 °F 15.2 °F 11.1 °F 68% 30.08 in 10.0 mi West 3.5 mph - N/A   Clear
10:55 PM 19.9 °F - 11.3 °F 69% 30.08 in 10.0 mi Calm Calm - N/A   Clear
11:15 PM 20.8 °F - 11.8 °F 68% 30.08 in 10.0 mi Calm Calm - N/A   Clear
11:35 PM 19.4 °F - 11.5 °F 71% 30.08 in 10.0 mi Calm Calm - N/A   Clear
11:55 PM 17.2 °F - 10.9 °F 76% 30.09 in 10.0 mi Calm Calm - N/A   Clear